Location: ?
(35.4214°N, 139.3011°E)
Time: 22:41:45
(UTC+00:00)

CZ-2C R/B - Pass Details

Date: 14 July 2020
Orbit: 784 x 871 km, 98.3° (Epoch: 10 August)

Event Time Altitude Azimuth Distance (km) Brightness Sun altitude
Rises 11:15:02 0° 3° (N) 3,344 6.4 -13.8°
Reaches altitude 10° 11:17:31 10° 356° (N) 2,396 5.7 -14.2°
Maximum altitude 11:22:23 39° 289° (WNW) 1,184 4.1 -14.9°
Drops below altitude 10° 11:27:09 10° 222° (SW) 2,344 5.0 -15.7°
Sets 11:29:35 0° 214° (SW) 3,263 5.7 -16.0°
